Time,TemperatureF,DewpointF,PressureIn,WindDirection,WindDirectionDegrees,WindSpeedMPH,WindSpeedGustMPH,Humidity,HourlyPrecipIn,Conditions,Clouds,dailyrainin,SoftwareType,DateUTC
2014-09-19 00:03:00,61.9,53.9,29.44,South,183,0.0,0.0,75,0.00,,,0.04,VWS V14.01,2014-09-19 07:03:00,
2014-09-19 00:08:00,61.9,53.9,29.44,South,183,0.0,0.0,75,0.00,,,0.00,VWS V14.01,2014-09-19 07:08:00,
2014-09-19 00:13:00,61.9,53.9,29.44,South,183,0.0,0.0,75,0.00,,,0.00,VWS V14.01,2014-09-19 07:13:00,
2014-09-19 00:18:00,62.1,54.0,29.44,South,183,0.0,0.0,75,0.00,,,0.00,VWS V14.01,2014-09-19 07:18:00,
2014-09-19 00:23:00,62.1,54.0,29.44,South,183,0.0,0.0,75,0.00,,,0.00,VWS V14.01,2014-09-19 07:23:00,
2014-09-19 00:28:00,62.1,54.0,29.44,South,183,0.0,0.0,75,0.00,,,0.00,VWS V14.01,2014-09-19 07:28:00,
2014-09-19 00:33:00,62.1,54.0,29.44,South,183,0.0,0.0,75,0.00,,,0.00,VWS V14.01,2014-09-19 07:33:00,
2014-09-19 00:38:00,62.1,54.0,29.44,South,183,0.0,0.0,75,0.00,,,0.00,VWS V14.01,2014-09-19 07:38:00,
2014-09-19 00:43:00,62.1,54.0,29.44,South,183,0.0,0.0,75,0.00,,,0.00,VWS V14.01,2014-09-19 07:43:00,
2014-09-19 00:48:00,62.1,54.0,29.44,South,183,0.0,0.0,75,0.00,,,0.00,VWS V14.01,2014-09-19 07:48:00,
2014-09-19 00:53:00,62.1,54.0,29.44,South,182,0.0,0.0,75,0.00,,,0.00,VWS V14.01,2014-09-19 07:53:00,
2014-09-19 00:58:00,62.1,54.0,29.44,South,183,0.0,0.0,75,0.00,,,0.00,VWS V14.01,2014-09-19 07:58:00,
2014-09-19 01:03:00,62.1,54.0,29.44,South,182,0.0,0.0,75,0.00,,,0.00,VWS V14.01,2014-09-19 08:03:00,
2014-09-19 01:08:00,62.1,54.0,29.44,South,183,0.0,0.0,75,0.00,,,0.00,VWS V14.01,2014-09-19 08:08:00,
2014-09-19 01:12:00,62.1,54.0,29.44,South,182,0.0,0.0,75,0.00,,,0.00,VWS V14.01,2014-09-19 08:12:00,
2014-09-19 01:17:00,61.9,53.9,29.44,South,182,0.0,0.0,75,0.00,,,0.00,VWS V14.01,2014-09-19 08:17:00,
2014-09-19 01:22:00,61.9,53.9,29.44,South,183,0.0,2.2,75,0.00,,,0.00,VWS V14.01,2014-09-19 08:22:00,
2014-09-19 01:27:00,62.1,53.7,29.44,SE,126,0.0,2.2,74,0.00,,,0.00,VWS V14.01,2014-09-19 08:27:00,
2014-09-19 01:32:00,62.1,53.7,29.44,SE,136,0.0,0.0,74,0.00,,,0.00,VWS V14.01,2014-09-19 08:32:00,
2014-09-19 01:37:00,62.1,54.0,29.44,SE,136,0.0,0.0,75,0.00,,,0.00,VWS V14.01,2014-09-19 08:37:00,
2014-09-19 01:42:00,62.1,54.0,29.44,SSE,149,0.0,0.0,75,0.00,,,0.00,VWS V14.01,2014-09-19 08:42:00,
2014-09-19 01:47:00,61.9,53.9,29.44,SSE,150,0.0,0.0,75,0.00,,,0.00,VWS V14.01,2014-09-19 08:47:00,
2014-09-19 01:52:00,61.9,53.9,29.44,SSE,149,0.0,0.0,75,0.00,,,0.00,VWS V14.01,2014-09-19 08:52:00,
2014-09-19 01:57:00,61.9,54.2,29.44,SSE,149,0.0,0.0,76,0.00,,,0.00,VWS V14.01,2014-09-19 08:57:00,
2014-09-19 02:02:00,61.9,54.2,29.44,SSE,149,0.0,0.0,76,0.00,,,0.00,VWS V14.01,2014-09-19 09:02:00,
2014-09-19 02:07:00,61.9,54.2,29.44,SSE,149,0.0,0.0,76,0.00,,,0.00,VWS V14.01,2014-09-19 09:07:00,
2014-09-19 02:12:00,61.9,54.2,29.44,SSE,149,0.0,0.0,76,0.00,,,0.00,VWS V14.01,2014-09-19 09:12:00,
2014-09-19 02:17:00,61.9,54.2,29.44,SSE,149,0.0,0.0,76,0.00,,,0.00,VWS V14.01,2014-09-19 09:17:00,
2014-09-19 02:22:00,61.9,54.6,29.44,SSE,150,0.0,0.0,77,0.00,,,0.00,VWS V14.01,2014-09-19 09:22:00,
2014-09-19 02:27:00,61.9,54.6,29.44,SSE,150,0.0,0.0,77,0.00,,,0.00,VWS V14.01,2014-09-19 09:27:00,
2014-09-19 02:32:00,61.9,54.6,29.44,SSE,150,0.0,0.0,77,0.00,,,0.00,VWS V14.01,2014-09-19 09:32:00,
2014-09-19 02:37:00,61.9,54.6,29.44,SSE,150,0.0,0.0,77,0.00,,,0.00,VWS V14.01,2014-09-19 09:37:00,
2014-09-19 02:42:00,61.9,54.6,29.44,SSE,150,0.0,0.0,77,0.00,,,0.00,VWS V14.01,2014-09-19 09:42:00,
2014-09-19 02:47:00,61.7,54.4,29.44,SSE,150,0.0,0.0,77,0.00,,,0.00,VWS V14.01,2014-09-19 09:47:00,
2014-09-19 02:52:00,61.7,54.4,29.47,SSE,150,0.0,0.0,77,0.00,,,0.00,VWS V14.01,2014-09-19 09:52:00,
2014-09-19 02:57:00,61.7,54.4,29.47,SSE,150,0.0,0.0,77,0.00,,,0.00,VWS V14.01,2014-09-19 09:57:00,
2014-09-19 03:02:00,61.7,54.4,29.47,SSE,150,0.0,0.0,77,0.00,,,0.00,VWS V14.01,2014-09-19 10:02:00,
2014-09-19 03:07:00,61.7,54.8,29.47,SSE,150,0.0,2.7,78,0.00,,,0.00,VWS V14.01,2014-09-19 10:07:00,
2014-09-19 03:12:00,61.7,54.8,29.47,SSE,150,0.0,0.0,78,0.00,,,0.00,VWS V14.01,2014-09-19 10:12:00,
2014-09-19 03:17:00,61.7,54.4,29.47,SE,124,0.0,0.0,77,0.00,,,0.00,VWS V14.01,2014-09-19 10:17:00,
2014-09-19 03:22:00,61.7,54.4,29.47,SE,124,0.0,0.0,77,0.00,,,0.00,VWS V14.01,2014-09-19 10:22:00,
2014-09-19 03:27:00,61.7,54.4,29.47,ESE,117,2.7,2.7,77,0.00,,,0.00,VWS V14.01,2014-09-19 10:27:00,
2014-09-19 03:32:00,61.7,54.4,29.47,ESE,117,0.0,2.2,77,0.00,,,0.00,VWS V14.01,2014-09-19 10:32:00,
2014-09-19 03:37:00,61.7,54.1,29.47,South,187,0.0,0.0,76,0.00,,,0.00,VWS V14.01,2014-09-19 10:37:00,
2014-09-19 03:42:00,61.7,54.1,29.47,SSE,158,0.0,0.0,76,0.00,,,0.00,VWS V14.01,2014-09-19 10:42:00,
2014-09-19 03:47:00,61.5,53.9,29.47,SSE,158,0.0,0.0,76,0.00,,,0.00,VWS V14.01,2014-09-19 10:47:00,
2014-09-19 03:49:00,61.5,53.9,29.47,SSE,158,0.0,0.0,76,0.00,,,0.00,VWS V14.01,2014-09-19 10:49:00,
2014-09-19 03:54:00,61.5,53.9,29.47,SSE,158,0.0,0.0,76,0.00,,,0.00,VWS V14.01,2014-09-19 10:54:00,
2014-09-19 03:59:00,61.3,54.1,29.47,SSE,158,0.0,0.0,77,0.00,,,0.00,VWS V14.01,2014-09-19 10:59:00,
2014-09-19 04:04:00,61.3,54.1,29.47,SSE,158,0.0,0.0,77,0.00,,,0.00,VWS V14.01,2014-09-19 11:04:00,
2014-09-19 04:09:00,61.3,54.1,29.44,SSE,158,0.0,0.0,77,0.00,,,0.00,VWS V14.01,2014-09-19 11:09:00,
2014-09-19 04:14:00,61.3,54.1,29.44,SSE,158,0.0,0.0,77,0.00,,,0.00,VWS V14.01,2014-09-19 11:14:00,
2014-09-19 04:19:00,61.3,54.4,29.44,SSE,158,0.0,0.0,78,0.00,,,0.00,VWS V14.01,2014-09-19 11:19:00,
2014-09-19 04:24:00,61.3,54.4,29.47,SSE,158,0.0,0.0,78,0.00,,,0.00,VWS V14.01,2014-09-19 11:24:00,
2014-09-19 04:29:00,61.3,54.4,29.47,SSE,158,0.0,0.0,78,0.00,,,0.00,VWS V14.01,2014-09-19 11:29:00,
2014-09-19 04:34:00,61.3,54.4,29.47,SSE,158,0.0,0.0,78,0.00,,,0.00,VWS V14.01,2014-09-19 11:34:00,
2014-09-19 04:39:00,61.3,54.4,29.47,SSE,158,0.0,0.0,78,0.00,,,0.00,VWS V14.01,2014-09-19 11:39:00,
2014-09-19 04:44:00,61.3,54.4,29.47,SSE,158,0.0,0.0,78,0.00,,,0.00,VWS V14.01,2014-09-19 11:44:00,
2014-09-19 04:49:00,61.3,54.4,29.47,SSE,158,0.0,0.0,78,0.00,,,0.00,VWS V14.01,2014-09-19 11:49:00,
2014-09-19 04:54:00,61.3,54.8,29.47,SSE,158,0.0,0.0,79,0.00,,,0.00,VWS V14.01,2014-09-19 11:54:00,
2014-09-19 04:59:00,61.3,54.4,29.47,SSE,158,0.0,0.0,78,0.00,,,0.00,VWS V14.01,2014-09-19 11:59:00,
2014-09-19 05:04:00,61.3,54.8,29.47,SSE,158,0.0,0.0,79,0.00,,,0.00,VWS V14.01,2014-09-19 12:04:00,
2014-09-19 05:09:00,61.3,54.8,29.47,SSE,158,0.0,0.0,79,0.00,,,0.00,VWS V14.01,2014-09-19 12:09:00,
2014-09-19 05:14:00,61.3,54.8,29.47,SSE,158,0.0,0.0,79,0.00,,,0.00,VWS V14.01,2014-09-19 12:14:00,
2014-09-19 05:19:00,61.3,54.8,29.47,SSE,158,0.0,0.0,79,0.00,,,0.00,VWS V14.01,2014-09-19 12:19:00,
2014-09-19 05:24:00,61.3,54.8,29.47,SSE,158,0.0,0.0,79,0.00,,,0.00,VWS V14.01,2014-09-19 12:24:00,
2014-09-19 05:29:00,61.2,54.6,29.47,SSE,158,0.0,0.0,79,0.00,,,0.00,VWS V14.01,2014-09-19 12:29:00,
2014-09-19 05:34:00,61.2,54.6,29.47,SSE,158,0.0,0.0,79,0.00,,,0.00,VWS V14.01,2014-09-19 12:34:00,
2014-09-19 05:39:00,61.2,54.6,29.47,SSE,158,0.0,0.0,79,0.00,,,0.00,VWS V14.01,2014-09-19 12:39:00,
2014-09-19 05:44:00,61.3,54.8,29.47,SSE,158,0.0,0.0,79,0.00,,,0.00,VWS V14.01,2014-09-19 12:44:00,
2014-09-19 05:49:00,61.3,54.8,29.47,SSE,158,0.0,0.0,79,0.00,,,0.00,VWS V14.01,2014-09-19 12:49:00,
2014-09-19 05:53:00,61.3,54.4,29.47,SSE,158,0.0,0.0,78,0.00,,,0.00,VWS V14.01,2014-09-19 12:53:00,
2014-09-19 05:58:00,61.3,54.8,29.47,SSE,159,0.0,0.0,79,0.00,,,0.00,VWS V14.01,2014-09-19 12:58:00,
2014-09-19 06:03:00,61.3,54.8,29.47,SSE,158,0.0,0.0,79,0.00,,,0.00,VWS V14.01,2014-09-19 13:03:00,
2014-09-19 06:08:00,61.3,54.4,29.50,SSE,159,0.0,0.0,78,0.00,,,0.00,VWS V14.01,2014-09-19 13:08:00,
2014-09-19 06:13:00,61.2,54.3,29.50,SSE,158,0.0,0.0,78,0.00,,,0.00,VWS V14.01,2014-09-19 13:13:00,
2014-09-19 06:18:00,61.2,54.3,29.50,SSE,158,0.0,0.0,78,0.00,,,0.00,VWS V14.01,2014-09-19 13:18:00,
2014-09-19 06:23:00,61.2,54.3,29.50,SSE,158,0.0,0.0,78,0.00,,,0.00,VWS V14.01,2014-09-19 13:23:00,
2014-09-19 06:28:00,61.2,54.3,29.50,SSE,158,0.0,0.0,78,0.00,,,0.00,VWS V14.01,2014-09-19 13:28:00,
2014-09-19 06:33:00,61.2,54.6,29.50,SSE,159,0.0,0.0,79,0.00,,,0.00,VWS V14.01,2014-09-19 13:33:00,
2014-09-19 06:38:00,61.0,54.4,29.50,SSE,159,0.0,0.0,79,0.00,,,0.00,VWS V14.01,2014-09-19 13:38:00,
2014-09-19 06:43:00,61.0,54.4,29.50,SSE,158,0.0,0.0,79,0.00,,,0.00,VWS V14.01,2014-09-19 13:43:00,
2014-09-19 06:48:00,61.0,54.4,29.50,South,179,0.0,0.0,79,0.00,,,0.00,VWS V14.01,2014-09-19 13:48:00,
2014-09-19 06:53:00,61.0,54.4,29.50,South,179,0.0,0.0,79,0.00,,,0.00,VWS V14.01,2014-09-19 13:53:00,
2014-09-19 06:58:00,61.0,54.4,29.50,South,178,0.0,0.0,79,0.00,,,0.00,VWS V14.01,2014-09-19 13:58:00,
2014-09-19 07:03:00,61.0,54.4,29.50,South,178,0.0,0.0,79,0.00,,,0.00,VWS V14.01,2014-09-19 14:03:00,
2014-09-19 07:08:00,61.0,54.4,29.50,South,179,0.0,0.0,79,0.00,,,0.00,VWS V14.01,2014-09-19 14:08:00,
2014-09-19 07:13:00,61.0,54.4,29.50,South,178,0.0,0.0,79,0.00,,,0.00,VWS V14.01,2014-09-19 14:13:00,
2014-09-19 07:18:00,61.0,54.4,29.50,South,179,0.0,0.0,79,0.00,,,0.00,VWS V14.01,2014-09-19 14:18:00,
2014-09-19 07:23:00,61.0,54.4,29.50,South,179,0.0,0.0,79,0.00,,,0.00,VWS V14.01,2014-09-19 14:23:00,
2014-09-19 07:28:00,61.0,54.4,29.50,South,179,0.0,0.0,79,0.00,,,0.00,VWS V14.01,2014-09-19 14:28:00,
2014-09-19 07:33:00,61.0,54.4,29.50,South,178,0.0,0.0,79,0.00,,,0.00,VWS V14.01,2014-09-19 14:33:00,
2014-09-19 07:38:00,61.0,54.4,29.50,South,178,0.0,0.0,79,0.00,,,0.00,VWS V14.01,2014-09-19 14:38:00,
2014-09-19 07:43:00,61.2,54.6,29.50,South,179,0.0,0.0,79,0.00,,,0.00,VWS V14.01,2014-09-19 14:43:00,
2014-09-19 07:48:00,61.2,54.6,29.50,South,179,0.0,0.0,79,0.00,,,0.00,VWS V14.01,2014-09-19 14:48:00,
2014-09-19 07:53:00,61.3,54.8,29.50,South,179,0.0,0.0,79,0.00,,,0.00,VWS V14.01,2014-09-19 14:53:00,
2014-09-19 07:58:00,61.3,54.4,29.50,South,178,0.0,0.0,78,0.00,,,0.00,VWS V14.01,2014-09-19 14:58:00,
2014-09-19 08:03:00,61.5,54.6,29.50,South,179,0.0,0.0,78,0.00,,,0.00,VWS V14.01,2014-09-19 15:03:00,
2014-09-19 08:08:00,61.5,54.6,29.53,South,178,0.0,0.0,78,0.00,,,0.00,VWS V14.01,2014-09-19 15:08:00,
2014-09-19 08:13:00,61.7,54.4,29.53,South,179,0.0,0.0,77,0.00,,,0.00,VWS V14.01,2014-09-19 15:13:00,
2014-09-19 08:18:00,61.7,54.1,29.53,South,178,0.0,0.0,76,0.00,,,0.00,VWS V14.01,2014-09-19 15:18:00,
2014-09-19 08:23:00,61.9,54.2,29.53,South,178,0.0,0.0,76,0.00,,,0.00,VWS V14.01,2014-09-19 15:23:00,
2014-09-19 08:28:00,62.1,54.4,29.53,South,179,0.0,0.0,76,0.00,,,0.00,VWS V14.01,2014-09-19 15:28:00,
2014-09-19 08:33:00,62.1,54.0,29.53,South,179,0.0,0.0,75,0.00,,,0.00,VWS V14.01,2014-09-19 15:33:00,
2014-09-19 08:38:00,62.2,54.2,29.53,South,179,0.0,0.0,75,0.00,,,0.00,VWS V14.01,2014-09-19 15:38:00,
2014-09-19 08:43:00,62.2,53.9,29.53,South,178,0.0,0.0,74,0.00,,,0.00,VWS V14.01,2014-09-19 15:43:00,
2014-09-19 08:48:00,62.4,53.7,29.53,South,179,0.0,0.0,73,0.00,,,0.00,VWS V14.01,2014-09-19 15:48:00,
2014-09-19 08:53:00,62.4,53.3,29.53,South,175,0.0,0.0,72,0.00,,,0.00,VWS V14.01,2014-09-19 15:53:00,
2014-09-19 08:58:00,62.6,53.5,29.53,South,175,0.0,0.0,72,0.00,,,0.00,VWS V14.01,2014-09-19 15:58:00,
2014-09-19 09:03:00,62.6,53.1,29.53,South,175,0.0,0.0,71,0.00,,,0.00,VWS V14.01,2014-09-19 16:03:00,
2014-09-19 09:08:00,62.8,53.2,29.53,South,175,0.0,0.0,71,0.00,,,0.00,VWS V14.01,2014-09-19 16:08:00,
2014-09-19 09:13:00,63.0,52.6,29.53,South,175,0.0,2.7,69,0.00,,,0.00,VWS V14.01,2014-09-19 16:13:00,
2014-09-19 09:18:00,63.1,52.8,29.53,South,175,0.0,0.0,69,0.00,,,0.00,VWS V14.01,2014-09-19 16:18:00,
2014-09-19 09:23:00,63.5,52.8,29.53,South,175,0.0,0.0,68,0.00,,,0.00,VWS V14.01,2014-09-19 16:23:00,